Location: Cantaing
(50.1487°N, 3.1675°E)
Time: 03:54:23
(UTC+00:00)

Cosmos 1844 Rocket - Pass Details

Date: 11 April 2026
Orbit: 825 x 842 km, 71.0° (Epoch: 11 May)

Event Time Altitude Azimuth Distance (km) Brightness Sun altitude
Rises 20:16:06 0° 315° (NW) 3,377 7.6 -15.5°
Reaches altitude 10° 20:20:14 10° 286° (WNW) 2,434 6.2 -16.0°
Maximum altitude 20:22:11 12° 265° (W) 2,296 5.7 -16.3°
Drops below altitude 10° 20:24:08 10° 244° (WSW) 2,426 5.4 -16.5°
Sets 20:28:15 0° 214° (SW) 3,350 5.8 -17.0°
